Date,TemperatureHighF,TemperatureAvgF,TemperatureLowF,DewpointHighF,DewpointAvgF,DewpointLowF,HumidityHigh,HumidityAvg,HumidityLow,PressureMaxIn,PressureMinIn,WindSpeedMaxMPH,WindSpeedAvgMPH,GustSpeedMaxMPH,PrecipitationSumIn
2013-11-1,52.3,46.6,41.9,50.0,41.5,34.5,93,82,72,29.68,28.99,32,10,32,1.59
2013-11-2,41.9,39.4,36.3,35.4,31.4,27.7,81,73,66,30.12,29.67,16,4,16,0.04
2013-11-3,46.8,40.9,34.7,32.7,30.4,25.2,76,66,55,30.32,30.12,12,0,12,0.00
2013-11-4,50.2,45.5,40.1,37.2,33.9,30.7,75,64,50,30.33,30.10,18,3,18,0.02
2013-11-5,51.8,49.7,46.9,47.8,42.1,36.9,89,75,63,30.25,29.98,19,5,19,0.09
2013-11-6,52.0,45.2,38.7,49.5,40.7,28.9,92,84,69,29.98,29.66,27,-8,27,0.81
2013-11-7,40.1,38.6,37.0,30.7,29.2,27.0,76,69,60,30.04,29.95,23,13,23,0.01
2013-11-8,41.9,39.2,36.7,31.6,27.4,22.5,75,63,47,30.16,30.01,19,7,19,0.00
2013-11-9,47.3,42.9,38.7,41.9,36.0,30.6,87,77,65,30.01,29.59,33,11,34,0.76
2013-11-10,45.0,41.2,37.2,40.6,31.2,26.4,79,67,56,30.15,29.74,32,18,34,0.07
2013-11-11,45.0,32.3,27.3,34.3,22.2,14.0,84,66,52,30.34,29.91,34,19,34,2.23
2013-11-12,32.4,29.0,26.8,21.7,14.9,10.2,73,56,42,30.50,30.33,30,14,30,0.00
2013-11-13,44.2,37.9,31.1,31.6,25.0,12.0,70,60,43,30.37,29.83,54,22,54,4.45
2013-11-14,45.3,42.8,41.7,35.4,31.3,27.3,75,64,55,29.86,29.77,40,21,43,4.81
2013-11-15,48.6,45.7,43.5,39.6,36.1,33.1,78,69,63,29.96,29.79,25,11,25,0.07
2013-11-16,51.8,47.3,43.5,48.2,41.5,35.8,88,80,74,29.96,29.52,15,-16,15,0.01
2013-11-17,54.5,50.5,44.2,51.8,47.3,37.6,92,89,77,29.56,29.05,34,-74,34,3.20
2013-11-18,44.2,35.8,32.2,37.6,25.1,18.3,78,65,53,30.11,29.27,46,24,46,15.71
2013-11-19,38.5,31.8,28.8,28.2,20.3,17.1,68,62,53,30.37,30.11,23,5,23,1.75
2013-11-20,44.8,40.1,37.4,30.7,28.3,26.2,69,63,53,30.29,30.14,13,2,14,0.00
2013-11-21,41.9,41.1,39.6,38.1,35.1,28.4,89,80,60,30.17,30.11,12,1,12,0.05
2013-11-22,39.6,32.8,30.2,35.2,23.8,13.8,86,70,43,30.31,30.14,30,13,30,0.18
2013-11-23,31.8,20.9,16.9,19.8,9.1,2.1,74,60,47,30.47,30.19,34,20,35,0.02
2013-11-24,33.1,21.7,18.0,21.7,8.9,3.2,73,58,51,30.48,30.05,41,13,41,0.02
2013-11-25,37.8,34.4,30.6,28.9,25.0,18.5,87,69,54,30.06,29.77,49,25,49,0.77
2013-11-26,37.8,29.6,21.4,28.4,19.4,10.2,76,65,55,30.02,29.83,28,14,28,0.00
2013-11-27,24.3,22.3,20.8,14.9,10.4,5.0,75,60,45,30.13,29.97,31,14,31,0.00
2013-11-28,26.1,23.4,18.3,16.9,13.7,8.1,75,66,56,30.38,30.12,12,3,12,0.00
2013-11-29,33.1,28.0,19.4,23.7,17.8,10.8,75,65,61,30.54,30.36,17,2,17,0.00
2013-11-30,39.7,34.7,31.5,33.8,26.7,21.9,79,72,65,30.37,29.97,31,8,31,0.37